Погода в Карасях

Россия / Курганская область     55°25′49″N   64°10′40″E
темп.,
°C
ветер,
м/с
пор.,
м/с
влажн.,
%
обл.,
%
осадки,
мм/ч
давл.,
гПа
погр.,
м
10 августа, ср
ср1023:00+18всв22730 0.0 101816
02:00+17ссз337559 0.0 101837
05:00+16с348225 0.0 101844
08:00+19ссз377762 0.0 1019211
11:00+23с5762100 0.1 1018585
14:00+28с564456 0.0 10182045
17:00+25ссв245252 0.0 1017463
20:00+23зсз336139 0.0 101727
11 августа, чт
чт1123:00+18ссз11762 0.3 101711
02:00+18всв11772 0.1 101711
05:00+16с11860 0.1 101711
08:00+21с01705 0.0 1018179
11:00+26зюз10525 0.0 1018791
14:00+28зюз214111 0.0 10171865
17:00+28зюз22406 0.0 10162185
20:00+24ююз335964 0.0 101523
12 августа, пт
пт1223:00+17ссз229499 0.2 101647
02:00+17з3694100 1.4 1016157
05:00+15сз51093100 1.4 1016323
08:00+15сз697943 0.0 1018581
11:00+20сз69530 0.0 10171288
14:00+23зсз7104199 0.0 10162483
17:00+22зсз61044100 0.0 10152405
20:00+18зсз485877 0.0 1016187
13 августа, сб
сб1323:00+15з4116812 0.0 1016215
02:00+14з410725 0.0 1015199
05:00+13з410785 0.0 1015203
08:00+17з610685 0.0 1014403
11:00+23з8105325 0.0 10131311
14:00+20зсз711625 0.0 10131244
17:00+22сз71147100 0.0 10131247
20:00+19ссз4105553 0.0 1014292
14 августа, вс
вс1423:00+15ссз613552 0.0 1016450
02:00+11ссз37701 0.0 1017112
05:00+9сз37775 0.0 1018131
08:00+14сз510603 0.0 1019582
11:00+18сз79431 0.0 10191658
14:00+20сз79385 0.0 10182000
17:00+20ссз693712 0.0 10192314
20:00+15ссз35545 0.0 101984